Regional Weather Roundup
Issued by NWS Raleigh/Durham, NC

Home | Current Version | Previous Version | Text Only | Print | Product List | Glossary On
Versions: 1 2 3 4 5 6 7 8 9 10 11 12 13 14 15 16 17 18 19 20 21 22 23 24 25 26 27 28 29 30 31 32 33 34 35 36 37 38 39 40 41 42 43 44 45 46 47 48 49 50
000
ASUS42 KRAH 170210
RWRRAH
NORTH CAROLINA WEATHER ROUNDUP
NATIONAL WEATHER SERVICE RALEIGH NC
900 PM EST MON JAN 16 2017

NOTE: "FAIR" INDICATES FEW OR NO CLOUDS BELOW 12,000 FEET WITH NO
SIGNIFICANT WEATHER AND/OR OBSTRUCTIONS TO VISIBILITY.

NCZ001-053-055-056-065-067-170300-
WESTERN NORTH CAROLINA

CITY           SKY/WX    TMP DP  RH WIND       PRES   REMARKS
ASHEVILLE      CLOUDY    51  48  89 S8        30.30S FOG
JEFFERSON      CLOUDY    44  44 100 CALM      30.29S FOG
HICKORY        CLOUDY    49  48  97 CALM      30.33R FOG
RUTHERFORDTON  CLOUDY    51  51  98 CALM      30.33F
MOUNT AIRY     NOT AVBL
BOONE          PTCLDY    47  47  97 S7        30.30R
$$

NCZ021-022-025-041-071-084-088-170300-
CENTRAL NORTH CAROLINA

CITY           SKY/WX    TMP DP  RH WIND       PRES   REMARKS
CHARLOTTE      CLOUDY    51  46  83 SE8       30.34S
GREENSBORO     CLOUDY    47  44  90 S6        30.33S
WINSTON-SALEM  CLOUDY    49  43  80 CALM      30.35S
RALEIGH-DURHAM CLOUDY    49  39  68 S3        30.36S
FORT BRAGG     CLOUDY    50  44  81 CALM      30.35S
FAYETTEVILLE   CLOUDY    51  46  83 N3        30.35S
BURLINGTON     CLOUDY    46  40  79 CALM      30.35R
LAURINBURG     CLOUDY    49  45  86 NE5       30.35F
$$

NCZ011-015-027-028-043-044-047-080-103-170300-
NORTHEASTERN NORTH CAROLINA

CITY           SKY/WX    TMP DP  RH WIND       PRES   REMARKS
ROCKY MT-WILSO CLOUDY    48  43  82 CALM      30.36F
GREENVILLE     CLOUDY    50  45  81 E3        30.36F
WASHINGTON     CLOUDY    46  40  78 CALM      30.37S
ELIZABETH CITY CLOUDY    43  39  86 N3        30.38S
MANTEO         PTCLDY    42  40  92 CALM      30.37S
CAPE HATTERAS  PTCLDY    47  42  83 N6        30.35S
$$

NCZ078-087-090-091-093-098-101-170300-
SOUTHEASTERN NORTH CAROLINA

CITY           SKY/WX    TMP DP  RH WIND       PRES   REMARKS
LUMBERTON      CLOUDY    52  48  86 CALM      30.35S
GOLDSBORO      CLOUDY    51  45  82 CALM      30.33F
KINSTON        CLOUDY    52  43  71 CALM      30.36F
KENANSVILLE    NOT AVBL
NEW BERN       CLOUDY    50  43  77 NE3       30.37F
CHERRY POINT   CLOUDY    48  44  86 NE3       30.37S
BEAUFORT       CLOUDY    48  43  82 N3        30.36F
JACKSONVILLE   MOCLDY    52  46  80 NE5       30.35S
WILMINGTON     CLOUDY    53  47  79 E3        30.34F
$$




USA.gov is the U.S. government's official web portal to all federal, state and local government web resources and services.